Location: Hamayl? Da??
(36.7028°N, 30.1716°E)
Time: 00:45:04
(UTC+00:00)

Terra - Pass Details

Date: 04 August 2024
Orbit: 690 x 695 km, 98.0° (Epoch: 12 September)

Event Time Altitude Azimuth Distance (km) Brightness Sun altitude
Exits shadow 19:33:05 60° 228° (SW) 800 2.0 -25.4°
Maximum altitude 19:33:33 63° 259° (W) 775 2.0 -25.5°
Drops below altitude 10° 19:38:15 10° 341° (NNW) 2,162 5.2 -26.1°
Sets 19:40:32 0° 344° (NNW) 3,083 6.2 -26.4°
